SCP
0 0 0 0 0 0 0 0 0 0 0 0 0 -0 -0 -0 0 0 0 0 0 0 0 0 0 0 0 0 0 0 0 0 0 0 0 0 0 0 0 0 0 0 0 0
0 0 0 0 0 0 0 0 0 0 0 0 0 -0 -0 0 0 0 0 0 0 0 0 0 0 0 0 0 0 0 0 0 0 0 0 0 0 0 0 0 0 0 0 0
0 0 0 0 0 0 0 0 0 0 0 0 0 0 0 0 0 0 0 0 0 0 0 0 0 0 0 0 0 0 0 0 0 0 0 0 0 0 0 0 0 0 0 0
0 0 0 0 0 0 0 0 0 0 0 0 -0 -0 0 0 0 0 0 0 0 0 0 0 0 0 0 0 0 0 0 0 0 0 0 0 0 0 0 0 0 0 0 0
0 0 0 0 0 0 0 0 0 0 0 0 -0 -0 0 0 0 0 0 0 0 0 0 0 0 0 0 0 0 0 0 0 0 0 0 0 0 0 0 0 0 0 0 0
0 0 0 0 0 0 0 0 0 0 0 -0 -0 -0 -0 0 0 0 0 0 0 0 0 0 0 0 0 0 0 0 0 0 0 0 0 0 0 0 0 0 0 0 0 0
0 0 0 0 0 0 0 0 0 0 0 0 0 0 0 0 0 0 0 0 0 0 0 0 0 0 0 0 0 0 0 0 0 0 0 0 0 0 0 0 0 0 0 0
0 0 0 0 0 0 0 0 0 0 0 0 0 0 0 0 0 0 0 0 0 0 0 0 0 0 0 0 0 0 0 0 0 0 0 0 0 0 0 0 0 0 0 0
0 0 0 0 0 0 0 0 0 0 0 0 0 0 0 0 0 0 0 0 0 0 0 0 0 0 0 0 0 0 0 0 0 0 0 0 0 0 0 0 0 0 0 0
0 0 0 0 0 0 0 0 0 0 0 0 0 0 0 0 0 0 0 0 0 0 0 0 0 0 0 0 0 0 0 0 0 0 0 0 -0 -0 -0 0 0 0 0 0
0 0 0 0 0 0 0 0 0 0 0 0 0 0 0 0 0 0 0 0 0 0 0 0 0 0 0 0 0 0 0 0 0 0 0 0 -0 0 0 0 0 0 0 0
0 0 0 0 0 0 0 -0 -0 0 0 0 0 0 0 0 -0 0 0 0 0 0 0 0 0 0 0 0 0 0 0 0 0 0 0 0 0 0 0 0 0 0 0 0
0 0 0 0 0 0 0 0 0 0 0 0 0 0 0 0 0 0 0 0 0 0 0 0 0 0 0 0 0 0 0 0 0 0 0 0 0 0 0 0 0 0 0 0
0 0 0 0 0 0 0 0 0 0 0 0 0 0 0 0 0 0 0 0 0 0 0 0 0 0 0 0 0 0 0 0 0 0 0 0 0 0 0 0 0 0 0 0
0 0 0 0 0 0 0 0 0 0 0 0 0 0 0 0 0 0 0 0 0 0 0 0 0 -0 0 0 0 0 0 0 0 0 0 0 0 0 0 0 0 0 0 0
0 0 0 0 0 0 0 0 0 0 0 0 0 0 0 0 0 0 0 0 0 0 0 -0 0 0 0 0 0 0 0 0 0 0 0 0 0 0 0 0 0 0 0 0
0 0 0 0 0 0 0 0 0 0 0 0 0 0 0 0 0 0 0 0 0 0 0 0 0 0 0 0 0 0 0 0 0 0 0 0 0 0 0 0 0 0 0 0
-0 -0 0 0 0 0 0 0 0 0 0 0 0 0 0 0 0 0 0 0 0 0 0 0 0 0 0 0 0 0 0 0 0 0 0 0 0 0 0 0 0 0 0 0
0 0 0 0 0 0 0 0 0 0 0 0 0 0 0 0 0 0 0 0 0 0 0 0 0 0 0 0 0 0 0 0 0 0 0 0 0 0 0 0 0 0 0 0
0 0 0 0 0 0 0 0 0 0 0 0 0 0 0 0 0 -0 0 0 0 0 0 0 0 0 0 0 0 0 0 0 0 0 0 0 0 0 0 0 0 0 0 0
0 0 0 0 0 0 0 0 0 0 0 0 0 0 0 0 0 -0 0 0 0 0 0 0 0 0 0 0 0 0 0 0 0 0 0 0 0 0 0 0 0 0 0 0
0 0 0 0 0 0 0 0 0 0 0 0 0 0 0 0 0 0 0 0 0 0 0 0 0 0 0 0 0 0 0 0 0 0 0 0 0 0 0 -0 0 0 0 0
0 0 0 0 0 0 0 0 0 0 0 0 0 0 0 0 0 0 0 0 0 0 0 0 0 0 0 0 0 0 0 0 0 0 0 0 0 0 0 0 0 0 0 0
0 0 0 0 0 -0 -0 -0 -0 0 0 0 0 0 0 0 0 0 0 0 0 0 0 0 0 0 0 0 0 0 0 0 0 0 0 0 0 0 0 0 0 0 0 0
0 0 0 0 0 -0 -0 -0 -0 0 0 0 0 0 0 0 0 0 0 0 0 0 0 0 0 0 0 0 0 0 0 0 0 0 0 0 0 0 0 0 0 0 0 0
0 0 0 0 0 0 -0 -0 -0 0 0 0 0 0 0 0 0 0 0 0 0 0 0 0 0 0 0 0 0 0 0 0 0 0 0 0 0 0 0 0 0 0 0 0
0 0 0 0 0 0 0 0 0 0 0 0 0 0 0 0 0 0 0 0 0 0 0 0 0 0 0 0 0 0 0 0 0 0 0 0 0 0 0 0 0 0 0 0
Wind_Speed
8 6 4 7 8 9 10 10 10 11 11 12 8 7 6 5 4 4 4 4 3 3 3 3 3 2 2 2 2 2 1 1 2 2 1 1 1 2 2 2 2 2 2 2
5 5 6 9 11 11 12 10 12 12 16 10 7 6 6 6 5 5 5 5 4 3 3 3 3 3 2 2 2 1 2 2 2 1 1 1 1 1 1 2 2 2 2 2
5 4 4 10 12 12 9 9 10 14 14 5 5 7 7 6 6 6 5 5 4 4 4 4 4 3 3 3 2 2 2 2 2 2 1 1 1 1 1 2 2 2 2 1
3 2 9 9 3 8 9 10 10 10 9 6 7 6 5 5 5 5 5 4 4 4 4 3 3 2 2 2 2 2 2 2 2 1 2 1 1 1 2 1 1 2 2 2
2 5 11 8 4 5 7 9 9 11 11 7 3 3 5 4 4 5 5 4 4 3 3 3 2 2 1 2 2 2 2 2 2 2 1 1 1 1 1 1 1 2 2 1
3 4 9 7 3 3 2 7 5 7 8 5 1 2 6 2 1 3 3 2 2 2 2 2 2 1 1 2 2 2 3 2 2 2 2 2 2 2 1 1 1 1 1 1
6 7 11 6 2 4 3 7 2 3 5 4 6 6 4 2 2 2 2 2 2 2 2 3 2 1 2 2 3 3 2 2 1 1 2 2 2 1 1 1 0 1 1 2
5 7 11 3 5 7 7 3 1 2 3 4 5 4 3 3 3 2 2 2 2 2 3 2 1 1 2 3 3 1 1 1 1 1 1 1 1 1 1 1 0 1 1 2
9 10 5 4 6 5 3 3 3 3 3 3 4 4 4 3 3 3 3 2 2 2 2 2 1 2 3 3 1 1 1 1 1 1 0 1 1 1 0 0 0 1 1 1
7 10 8 7 6 6 5 5 5 4 3 3 4 4 4 3 3 3 2 2 2 2 2 3 2 2 3 2 1 1 1 1 1 0 0 0 0 1 1 1 1 1 1 1
8 9 7 6 7 6 5 4 4 3 3 4 4 4 4 3 3 3 2 2 2 2 3 3 3 2 2 1 1 1 1 1 1 1 1 0 0 1 1 2 2 1 1 1
9 8 6 6 5 4 5 5 5 4 3 3 4 4 3 3 3 2 2 2 2 3 3 3 2 2 2 1 2 2 1 1 1 1 0 0 0 1 2 2 2 3 3 3
8 6 6 7 6 4 5 5 4 4 5 4 3 3 3 3 3 2 2 3 3 3 3 3 2 2 2 1 2 2 2 2 1 1 1 1 0 0 1 2 2 2 2 3
6 4 5 6 5 4 4 3 2 3 3 4 3 3 2 2 2 2 3 3 3 3 3 3 2 2 2 2 2 2 2 2 2 1 1 1 1 0 0 1 1 2 3 4
6 6 6 5 3 3 2 1 2 2 2 2 2 2 2 3 3 3 3 3 2 2 3 3 3 3 2 2 2 2 2 2 1 1 1 1 1 0 0 0 0 1 2 3
3 3 3 4 4 4 3 3 3 4 3 3 3 3 3 3 3 3 3 2 2 3 3 3 3 3 2 2 2 2 2 2 2 1 1 1 1 1 0 0 0 1 1 2
3 4 4 4 5 5 5 5 4 4 3 3 4 3 2 2 2 2 3 3 3 3 3 3 3 2 2 3 2 2 2 2 3 2 1 1 1 1 0 0 1 1 2 3
6 5 5 5 5 5 4 4 3 3 4 3 2 2 2 3 3 4 3 2 2 2 2 3 3 2 2 3 2 2 2 2 2 2 1 1 1 1 0 0 1 1 2 2
4 4 4 4 4 3 3 3 3 3 2 2 2 3 3 3 3 3 2 1 1 2 3 2 2 2 2 3 3 2 3 3 2 2 1 1 1 0 0 0 1 1 1 2
2 2 2 2 2 2 2 2 2 2 2 2 2 2 3 3 2 2 2 2 3 3 3 2 2 2 3 3 3 2 3 3 2 2 1 1 1 1 0 0 1 1 1 1
2 2 1 1 1 1 1 2 2 2 2 2 3 3 3 3 2 2 1 2 3 2 2 2 2 2 2 3 3 2 3 3 2 2 2 1 1 1 0 1 1 1 1 1
2 2 2 1 1 1 1 1 2 2 2 2 2 2 2 2 2 2 2 3 2 2 1 1 2 3 4 4 2 3 3 2 2 2 2 2 1 1 1 1 1 1 1 1
2 2 2 2 1 1 1 1 1 2 2 2 3 3 3 2 2 2 2 1 1 2 1 2 3 4 5 3 3 3 2 2 2 2 2 2 1 1 1 1 1 1 1 1
2 2 1 1 0 0 1 2 1 1 2 2 2 3 2 1 1 2 2 2 2 1 1 2 4 4 4 3 3 2 2 2 2 1 1 1 1 1 1 1 1 1 1 2
1 1 1 1 1 2 2 1 0 0 0 0 1 1 1 1 2 1 1 1 2 2 1 2 3 3 3 2 2 2 2 2 2 2 1 1 1 1 1 1 1 1 1 2
2 2 2 2 2 2 1 1 1 1 1 0 1 0 0 1 1 1 1 1 2 2 2 1 2 2 2 2 2 2 2 1 1 1 1 1 1 1 1 1 1 1 2 2
1 1 1 1 1 1 1 1 2 1 1 2 1 0 1 1 1 1 1 1 2 2 1 1 1 1 2 2 2 1 1 1 1 1 1 1 1 1 1 1 1 1 1 1
Wind_Direction
252 260 243 241 236 213 210 216 225 246 251 262 265 265 270 269 269 277 286 286 280 283 284 281 281 279 273 276 272 253 237 241 255 254 248 256 280 285 287 289 286 272 265 276
268 258 256 261 248 230 229 229 238 258 267 259 259 260 260 258 254 262 271 275 281 286 286 276 268 270 269 266 264 247 237 251 261 263 256 260 279 292 301 302 305 291 277 275
269 295 308 264 233 214 218 214 206 232 250 255 261 259 257 253 246 251 260 269 273 270 270 266 261 256 253 252 250 234 236 255 266 253 248 254 269 289 290 293 301 306 299 287
276 333 249 248 219 205 223 237 221 237 251 245 248 265 267 239 232 254 260 265 270 268 272 273 267 275 273 259 236 230 235 244 247 238 246 259 265 276 278 279 279 288 295 293
210 253 273 284 239 193 208 258 224 233 251 257 267 310 286 240 220 237 248 256 260 264 268 271 267 272 280 266 244 235 242 243 238 224 240 260 264 268 269 266 276 276 275 277
201 235 254 259 236 190 146 277 244 218 237 242 178 271 270 262 243 251 260 263 273 291 286 275 270 255 249 254 243 244 248 244 230 216 226 238 248 256 266 259 271 294 308 307
218 242 263 256 207 137 184 253 259 217 230 214 208 227 256 278 277 273 281 286 287 293 281 272 260 230 245 249 247 250 247 237 230 220 226 226 237 245 230 257 310 318 322 315
194 229 255 205 152 191 225 257 241 237 229 223 239 259 270 270 270 276 287 292 292 289 285 288 263 218 245 255 257 249 228 227 233 229 229 216 202 224 205 173 171 319 326 324
205 227 252 189 210 233 233 246 249 241 243 224 240 257 266 270 269 267 267 278 284 272 284 297 279 218 235 258 253 231 203 225 243 241 226 200 179 180 172 167 184 290 295 317
256 264 264 259 254 255 240 238 249 241 234 217 235 249 260 267 270 274 275 278 281 266 269 284 285 254 242 252 220 178 201 221 214 162 324 69 175 195 195 205 222 262 287 297
254 269 282 266 242 245 252 257 264 259 233 229 229 243 246 257 261 263 276 284 275 254 256 270 279 272 260 239 187 182 202 204 184 159 184 181 288 250 246 237 231 246 255 258
240 240 231 261 262 242 240 249 249 249 256 247 224 232 243 252 256 254 263 273 278 267 261 267 267 273 272 223 188 181 189 187 181 181 185 151 52 353 333 302 295 302 296 295
242 257 250 269 273 248 237 240 237 232 234 245 245 233 236 252 260 258 265 267 265 264 263 259 255 260 258 223 196 187 191 196 192 186 172 161 154 61 351 354 355 341 325 319
243 247 263 258 259 261 250 245 242 243 240 233 237 237 234 247 257 256 261 263 263 265 264 254 247 256 249 216 203 198 191 200 189 182 181 171 177 210 260 326 343 348 345 342
245 232 242 263 276 278 265 248 248 257 256 259 239 232 234 241 254 263 272 275 271 266 260 246 243 252 230 206 201 193 184 183 176 172 170 162 163 174 208 290 325 333 340 347
261 260 246 252 257 259 248 236 235 247 247 246 250 248 244 245 254 265 272 262 248 257 256 245 244 242 207 192 192 183 183 188 169 160 153 147 155 158 161 284 322 324 320 325
233 256 250 257 254 251 243 238 234 240 242 238 242 241 238 243 259 270 276 273 259 261 256 241 241 231 196 185 180 174 170 175 164 147 150 160 167 167 183 228 278 297 297 301
229 239 240 241 246 250 255 253 243 236 237 238 232 221 224 228 242 258 273 288 297 298 275 239 221 202 186 179 170 167 162 156 150 152 153 158 162 157 171 234 261 287 307 317
244 244 250 251 247 238 240 245 244 239 232 210 206 227 241 245 244 252 260 252 257 274 279 272 218 174 172 172 160 156 152 148 145 146 150 163 124 110 172 240 277 293 303 315
265 256 252 264 256 228 229 235 225 228 226 201 203 228 252 256 246 242 243 249 246 245 252 244 191 165 166 168 157 149 149 147 147 148 146 148 153 170 215 252 275 287 296 304
277 278 268 266 290 283 241 209 195 214 225 207 208 226 242 254 245 223 224 269 279 258 234 208 163 158 162 163 154 141 144 146 151 157 161 164 167 182 220 257 275 284 290 296
271 263 261 255 253 287 292 231 200 205 213 221 228 225 228 245 243 247 246 243 253 245 219 184 165 176 171 153 137 137 141 146 151 155 160 165 173 191 219 246 263 275 279 284
266 255 250 249 240 264 305 278 220 210 215 221 223 225 227 231 220 221 263 259 228 218 186 187 187 171 150 129 129 134 141 145 150 158 167 172 182 198 217 238 254 261 270 281
263 265 263 262 211 212 274 282 269 248 234 237 234 224 213 219 257 249 232 222 222 203 157 173 166 152 134 118 126 132 141 147 153 157 162 169 180 199 217 232 249 260 266 275
242 242 236 224 223 240 246 253 303 288 258 272 277 255 224 204 213 229 197 189 190 151 126 150 146 135 119 118 126 133 145 161 165 159 163 172 187 202 218 235 252 261 265 271
222 232 240 242 238 230 219 199 208 219 171 149 324 303 166 140 148 145 133 138 144 137 116 111 116 118 116 124 131 138 145 158 156 152 166 182 196 202 220 249 267 271 272 278
217 233 248 278 272 235 211 196 194 201 184 175 196 202 126 122 124 128 129 122 117 114 108 111 117 122 123 127 133 140 145 149 154 164 179 193 201 217 240 255 268 278 282 283